This is the latest recevied weather packets stored in our database for station/object KCCA. If no packets are shown the sender has not sent any weather packets the latest 10 day(s).
| Time | Temp. | Humidity | Pressure | Rain* | Wind** | Luminosity | Snow |
|---|---|---|---|---|---|---|---|
| 1777391003 | 21.67° C | 78% | 1014.9 hPa | - | - | - | - |
| 1777390408 | 21.67° C | 78% | 1015.2 hPa | - | - | - | - |
| 1777389806 | 21.67° C | 78% | 1015.2 hPa | - | - | - | - |
| 1777389207 | 20.56° C | 77% | 1014.9 hPa | - | - | - | - |
| 1777388608 | 20.56° C | 77% | 1014.9 hPa | - | - | - | - |
| 1777388009 | 20.56° C | 77% | 1014.9 hPa | - | - | - | - |
| 1777387406 | 20.56° C | 77% | 1014.9 hPa | - | - | - | - |
| 1777386808 | 20.56° C | 77% | 1015.2 hPa | - | - | - | - |
| 1777386209 | 20.56° C | 77% | 1015.2 hPa | - | - | - | - |
| 1777385609 | 20° C | 82% | 1015.2 hPa | - | - | - | - |
| 1777385008 | 20° C | 82% | 1015.2 hPa | - | - | - | - |
| 1777384412 | 18.89° C | 88% | 1015.6 hPa | - | - | - | - |
| 1777383810 | 18.89° C | 88% | 1015.6 hPa | - | - | - | - |
| 1777383209 | 18.89° C | 88% | 1015.6 hPa | - | - | - | - |
| 1777382609 | 18.89° C | 88% | 1015.6 hPa | - | - | - | - |
| 1777382006 | 17.78° C | 93% | 1015.9 hPa | - | - | - | - |
| 1777381408 | 17.78° C | 93% | 1015.9 hPa | - | - | - | - |
| 1777380807 | 17.78° C | 93% | 1015.6 hPa | - | - | - | - |
| 1777380212 | 17.78° C | 93% | 1015.6 hPa | - | - | - | - |
| 1777379609 | 16.67° C | 100% | 1015.2 hPa | - | - | - | - |
| 1777379011 | 16.67° C | 100% | 1015.2 hPa | - | - | - | - |
| 1777378408 | 16.67° C | 93% | 1014.6 hPa | - | - | - | - |
| 1777377812 | 16.67° C | 93% | 1014.6 hPa | - | - | - | - |
| 1777377209 | 16.67° C | 93% | 1014.2 hPa | - | - | - | - |
| 1777376609 | 16.67° C | 93% | 1014.2 hPa | - | - | - | - |
* Rain since midnight (hover to see other rain measurements)
** Current wind speed in m/s (hover to see current wind gust speed)